Location: Ida Center
(41.8662°N, 83.5713°W)
Time: 16:44:57
(UTC+00:00)

GEOS 3 Rocket - Pass Details

Date: 17 November 2019
Orbit: 786 x 833 km, 115.0° (Epoch: 09 December)

Event Time Altitude Azimuth Distance (km) Brightness Sun altitude
Exits shadow 23:41:23 11° 28° (NNE) 2,311 5.6 -16.6°
Maximum altitude 23:46:15 57° 312° (NW) 965 4.2 -17.5°
Drops below altitude 10° 23:51:24 10° 234° (SW) 2,422 7.0 -18.5°
Sets 23:53:44 0° 231° (SW) 3,357 7.9 -18.9°
